ARIANE 5 R/B, 40148

Orbit data source: Space-Track

ARIANE 5 R/B, 40148 is space debris in HEO originally from a launch on Thu, 11 Sep 2014 UTC launched from the French Guiana (FRGUI). Debris objects in space refer to the collection of defunct objects orbiting the Earth. Examples of debris include non-operational satellites, rocket bodies, and fragments generated from explosions, collisions, or faulty payload assembly.

Loading next visibility...
Identifier
40148, 2014-054C
Orbit
HEO
Country
Flag of FRFR
Related business
Manufacturer
ADS/LV
Mission
Spacecraft
Bus & Motor
ESC-A, Unknown motor
Mass
~5,000 kg wet, ~5,000 kg dry
Launch date (UTC)
2014-09-11 (12 years ago)
Launch vehicle
Unknown
Launch site
French Guiana (FRGUI)
Object type
Payload
Rocket body
Debris
Shape & HBR
Cyl + 1 Nozzle, 3.5 m
Radar Cross Section
41.627 m², Large (>1 m²)

Expand to show TLE details & history
Last TLE update: 2 days ago

TLE from 2 days ago
0 ARIANE 5 R/B
1 40148U 14054C   26171.27007992  .00002752  00000-0  73323-3 0  9991
2 40148   5.9602  30.2350 7025728  14.2837 358.3324  2.60760902103914
Epoch: 2026-06-20T06:28Z
TLE epoch observation values (Epoch: 2026-06-20T06:28:54.905Z)
Latitude
0.00003°
Longitude
24.54653°
Altitude
339.244 km
Speed
10.039 km/s
True Right ascension
02h 01m 02s
True Declination
0° 00' 00"
Sunlit
Object was in daylight at epoch
Visualization orbit readout
Latitude
Unknown
Longitude
Unknown
Altitude
Unknown
Speed
Unknown
Apparent Right ascension
Unknown
Apparent Declination
Unknown
Sunlit
N/A
Visualization observer readout
Local Sidereal Time
21:34:45
Azimuth
Unknown
Elevation
Unknown
Doppler factor
Unknown
Orbital elements
Apogee altitude
31,592.79 km
Perigee altitude
255.11 km
Semi-major axis
22,302.087 km
Eccentricity
0.70257
Inclination
5.9602°
RAAN
30.235°
Arg. of periapsis
14.2837°
True anomaly
346.68516°
Mean anomaly
358.3324°
Eccentric anomaly
354.41414°
Mean motion
0.65167 °/min
Orbital period
552.43 mins
BSTAR
0.00073323
Loading maneuver chart data...
Computing Atmospheric mass density...
Loading historical data...
Loading historical data...
Loading historical data...
Loading historical data...
Loading historical data...
Loading historical data...
Loading historical data...
Other satellites on launch #54 in the year 2014 (2014-09-11 UTC)

Documentation

Showing up to 5 results
|